{"data":{"norad_id":55460,"epoch":"2026-05-25T00:20:36.302784Z","epoch_age_seconds":77246,"freshness":"FRESH","line1":"1 55460U 23015M   26145.01430906 -.00000243  00000+0  69663-6 0  9997","line2":"2 55460  43.0031 257.7893 0001323 268.2293  91.8407 15.27576896182393","mean_motion":15.27576896,"eccentricity":0.0001323,"inclination_deg":43.0031,"raan_deg":257.7893,"arg_perigee_deg":268.2293,"mean_anomaly_deg":91.8407,"bstar":6.9663e-7,"rev_number":18239,"period_min":94.266940261448,"perigee_km":482.15065439788,"apogee_km":483.96612669822,"semimajor_km":6861.195390548,"source":"CELESTRAK","updated_at":"2026-05-25T13:38:17.804547Z"}}